Weather History for Lakeview AWS, OR

Change the Weather History Date:

Monday, August 12, 2013

  Actual Average Record
Temperature  
Mean Temperature 62 °F -  
Max Temperature 82 °F 85 °F 98 °F (1933)
Min Temperature 42 °F 48 °F 35 °F (2007)
Degree Days  
Heating Degree Days 3    
Growing Degree Days 12 (Base 50)    
Moisture  
Dew Point 37 °F    
Average Humidity 47    
Maximum Humidity 81    
Minimum Humidity 18    
Precipitation  
Precipitation 0.00 in - - ()
Sea Level Pressure  
Sea Level Pressure 30.12 in    
Wind  
Wind Speed 4 mph (South)    
Max Wind Speed 10 mph    
Max Gust Speed -    
Visibility 10 miles    
Events      
Averages and records for this station are not official NWS values.
T = Trace of Precipitation, MM = Missing Value Source: NWS Daily Summary

Daily Weather History Graph

Daily Weather History Graph

Search for Another Location

Airport:

Trip Planner

Search our weather history database for the weather conditions in past years. The results will help you decide how hot, cold, wet, or windy it might be!

Date:

Astronomy

Aug. 12, 2013 Rise Set
Actual Time 6:06 AM PDT 8:06 PM PDT
Civil Twilight 5:35 AM PDT 8:36 PM PDT
Nautical Twilight 4:58 AM PDT 9:13 PM PDT
Astronomical Twilight 4:17 AM PDT 9:53 PM PDT
Moon 12:10 PM PDT (8/12) 10:54 PM PDT (8/12)
Length of Visible Light 15h 00m
Length of Day
13h 59m
Waxing Crescent, 32% of the Moon is Illuminated
Aug 12
Waxing Crescent
Aug 14
First Quarter
Aug 20
Full
Aug 28
Last Quarter
Sep 5
New

Hourly Weather History & Observations

Time (PDT) Temp. Windchill Dew Point Humidity Pressure Visibility Wind Dir Wind Speed Gust Speed Precip Events Conditions
12:15 AM 48.2 °F - 35.6 °F 62% 30.12 in 10.0 mi Calm Calm - N/A   Clear
12:35 AM 46.4 °F - 35.6 °F 66% 30.12 in 10.0 mi Calm Calm - N/A   Clear
12:55 AM 46.4 °F 44.3 °F 35.6 °F 66% 30.12 in 10.0 mi NE 4.6 mph - N/A   Clear
1:15 AM 48.2 °F - 35.6 °F 62% 30.12 in 10.0 mi North 8.1 mph - N/A   Clear
1:35 AM 50.0 °F - 37.4 °F 62% 30.12 in 10.0 mi NW 5.8 mph - N/A   Clear
1:55 AM 50.0 °F - 37.4 °F 62% 30.12 in 10.0 mi Calm Calm - N/A   Clear
2:15 AM 46.4 °F 44.3 °F 37.4 °F 71% 30.12 in 10.0 mi NE 4.6 mph - N/A   Clear
2:35 AM 46.4 °F - 37.4 °F 71% 30.12 in 10.0 mi Calm Calm - N/A   Clear
2:55 AM 46.4 °F 43.5 °F 37.4 °F 71% 30.12 in 10.0 mi North 5.8 mph - N/A   Clear
3:15 AM 46.4 °F 42.9 °F 35.6 °F 66% 30.12 in 10.0 mi North 6.9 mph - N/A   Clear
3:35 AM 44.6 °F 40.2 °F 37.4 °F 76% 30.12 in 10.0 mi North 8.1 mph - N/A   Clear
3:55 AM 44.6 °F 39.7 °F 35.6 °F 71% 30.12 in 10.0 mi North 9.2 mph - N/A   Clear
4:15 AM 44.6 °F 39.2 °F 37.4 °F 76% 30.12 in 10.0 mi NNW 10.4 mph - N/A   Clear
4:35 AM 44.6 °F 40.2 °F 37.4 °F 76% 30.12 in 10.0 mi NNW 8.1 mph - N/A   Clear
4:55 AM 44.6 °F 40.2 °F 37.4 °F 76% 30.12 in 10.0 mi NNW 8.1 mph - N/A   Clear
5:15 AM 44.6 °F 40.2 °F 39.2 °F 81% 30.12 in 10.0 mi North 8.1 mph - N/A   Clear
5:35 AM 44.6 °F 40.2 °F 37.4 °F 76% 30.12 in 10.0 mi NNW 8.1 mph - N/A   Clear
5:55 AM 42.8 °F 38.6 °F 37.4 °F 81% 30.13 in 10.0 mi North 6.9 mph - N/A   Clear
6:15 AM 42.8 °F 39.3 °F 37.4 °F 81% 30.13 in 10.0 mi North 5.8 mph - N/A   Clear
6:35 AM 42.8 °F 41.1 °F 37.4 °F 81% 30.14 in 10.0 mi North 3.5 mph - N/A   Clear
6:55 AM 44.6 °F 42.2 °F 39.2 °F 81% 30.14 in 10.0 mi NNE 4.6 mph - N/A   Clear
7:15 AM 46.4 °F - 41.0 °F 81% 30.14 in 10.0 mi Calm Calm - N/A   Clear
7:35 AM 51.8 °F - 41.0 °F 67% 30.15 in 10.0 mi NNE 3.5 mph - N/A   Clear
7:55 AM 51.8 °F - 39.2 °F 62% 30.15 in 10.0 mi Calm Calm - N/A   Clear
8:15 AM 53.6 °F - 39.2 °F 58% 30.15 in 10.0 mi Calm Calm - N/A   Clear
8:35 AM 55.4 °F - 39.2 °F 54% 30.15 in 10.0 mi Calm Calm - N/A   Clear
8:55 AM 57.2 °F - 41.0 °F 55% 30.15 in 10.0 mi East 3.5 mph - N/A   Clear
9:15 AM 59.0 °F - 42.8 °F 55% 30.15 in 10.0 mi SE 3.5 mph - N/A   Clear
9:35 AM 60.8 °F - 42.8 °F 52% 30.15 in 10.0 mi SE 4.6 mph - N/A   Clear
9:55 AM 62.6 °F - 41.0 °F 45% 30.16 in 10.0 mi SSE 4.6 mph - N/A   Clear
10:15 AM 64.4 °F - 41.0 °F 42% 30.15 in 10.0 mi ESE 3.5 mph - N/A   Clear
10:35 AM 66.2 °F - 41.0 °F 40% 30.15 in 10.0 mi SSE 3.5 mph - N/A   Clear
10:55 AM 68.0 °F - 42.8 °F 40% 30.15 in 10.0 mi South 5.8 mph - N/A   Clear
11:15 AM 69.8 °F - 42.8 °F 38% 30.15 in 10.0 mi SE 3.5 mph - N/A   Clear
11:35 AM 71.6 °F - 41.0 °F 33% 30.15 in 10.0 mi SE 4.6 mph - N/A   Clear
11:55 AM 71.6 °F - 41.0 °F 33% 30.14 in 10.0 mi South 5.8 mph - N/A   Clear
12:15 PM 73.4 °F - 41.0 °F 31% 30.14 in 10.0 mi SW 3.5 mph - N/A   Clear
12:35 PM 75.2 °F - 39.2 °F 27% 30.13 in 8.0 mi SSE 5.8 mph - N/A   Clear
12:55 PM 78.8 °F - 42.8 °F 28% 30.13 in 10.0 mi South 5.8 mph - N/A   Clear
1:15 PM 78.8 °F - 35.6 °F 21% 30.12 in 10.0 mi South 9.2 mph - N/A   Clear
1:35 PM 78.8 °F - 33.8 °F 20% 30.12 in 10.0 mi SSW 5.8 mph - N/A   Clear
1:55 PM 77.0 °F - 33.8 °F 21% 30.12 in 10.0 mi SSE 4.6 mph - N/A   Clear
2:15 PM 77.0 °F - 35.6 °F 22% 30.12 in 10.0 mi South 5.8 mph - N/A   Clear
2:35 PM 78.8 °F - 35.6 °F 21% 30.12 in 10.0 mi SSE 4.6 mph - N/A   Clear
2:55 PM 80.6 °F - 37.4 °F 21% 30.11 in 10.0 mi SSE 6.9 mph - N/A   Clear
3:15 PM 82.4 °F - 35.6 °F 19% 30.10 in 10.0 mi SW 4.6 mph - N/A   Clear
3:35 PM 78.8 °F - 32.0 °F 18% 30.10 in 10.0 mi SW 8.1 mph - N/A   Clear
3:55 PM 78.8 °F - 33.8 °F 20% 30.09 in 10.0 mi SSW 6.9 mph - N/A   Clear
4:15 PM 78.8 °F - 33.8 °F 20% 30.09 in 10.0 mi WSW 4.6 mph - N/A   Clear
4:35 PM 78.8 °F - 33.8 °F 20% 30.09 in 10.0 mi WSW 6.9 mph - N/A   Clear
4:55 PM 78.8 °F - 33.8 °F 20% 30.09 in 10.0 mi WSW 6.9 mph - N/A   Clear
5:15 PM 80.6 °F - 33.8 °F 18% 30.09 in 10.0 mi SW 10.4 mph - N/A   Clear
5:35 PM 80.6 °F - 33.8 °F 18% 30.09 in 10.0 mi WSW 10.4 mph - N/A   Clear
5:55 PM 78.8 °F - 33.8 °F 20% 30.09 in 10.0 mi SSW 6.9 mph - N/A   Clear
6:15 PM 78.8 °F - 33.8 °F 20% 30.09 in 10.0 mi SSW 5.8 mph - N/A   Clear
6:35 PM 78.8 °F - 33.8 °F 20% 30.08 in 10.0 mi SSW 5.8 mph - N/A   Clear
6:55 PM 75.2 °F - 35.6 °F 24% 30.08 in 10.0 mi South 4.6 mph - N/A   Clear
7:15 PM 71.6 °F - 37.4 °F 29% 30.09 in 10.0 mi SSE 3.5 mph - N/A   Clear
7:35 PM 69.8 °F - 39.2 °F 33% 30.09 in 10.0 mi SE 5.8 mph - N/A   Clear
7:55 PM 71.6 °F - 35.6 °F 27% 30.09 in 10.0 mi SSE 4.6 mph - N/A   Clear
8:15 PM 66.2 °F - 35.6 °F 32% 30.10 in 10.0 mi South 4.6 mph - N/A   Clear
8:35 PM 66.2 °F - 35.6 °F 32% 30.11 in 10.0 mi Calm Calm - N/A   Clear
8:55 PM 64.4 °F - 35.6 °F 34% 30.11 in 10.0 mi Calm Calm - N/A   Clear
10:15 PM 55.4 °F - 39.2 °F 54% 30.13 in 10.0 mi Calm Calm - N/A   Clear
10:35 PM 53.6 °F - 39.2 °F 58% 30.14 in 10.0 mi ENE 3.5 mph - N/A   Clear
10:55 PM 53.6 °F - 37.4 °F 54% 30.14 in 10.0 mi Calm Calm - N/A   Clear
11:15 PM 51.8 °F - 37.4 °F 58% 30.15 in 10.0 mi NNW 4.6 mph - N/A   Clear
11:35 PM 48.2 °F - 37.4 °F 66% 30.15 in 10.0 mi North 3.5 mph - N/A   Clear
11:55 PM 50.0 °F - 37.4 °F 62% 30.16 in 10.0 mi West 4.6 mph - N/A   Clear